CES214 EGKK-ZSPD

Flight info

Callsign CES214
Flight time N/A
Altitude 35000
Route FRANE M604 PAAVO Q295 SOMVA DCT MAVAS DCT SPY N873 ANDIK DCT KUBAT DCT DOSUR DCT TALSA DCT TUKMA P989 MEGAS/K0904F350 P989 OBIBA P997 AKUGI T635 SADER T580 ADMUR G117 XV R229 BA R104 ABK A308 TR P982 DARNO/K0891S1065 Y746 NIXAL B208 CGO W129 KAMDA W128 FYG B208 HFE R343 SASAN SAS11A
Aircraft B789/H-SDE1E2E3FGHIJ2J3J4J5M1RWXY/LB1D1

Departure

Time 2026-05-06 21:10
Airport London Gatwick Airport (EGKK)

Arrival

Time N/A
Airport Shanghai Pudong International Airport (ZSPD)
Time Latitude Longitude Altitude Speed Heading
2026-05-06 20:19 51.16244 -0.18085 218 ft 0 kts 78°
2026-05-06 20:54 51.16243 -0.18095 209 ft 4 kts 78°
2026-05-06 20:54 51.16237 -0.18137 220 ft 4 kts 78°
2026-05-06 20:54 51.16232 -0.18169 216 ft 4 kts 83°
2026-05-06 20:55 51.16234 -0.18207 213 ft 4 kts 134°
2026-05-06 20:55 51.16254 -0.18221 214 ft 4 kts 168°
2026-05-06 20:55 51.16275 -0.18229 214 ft 0 kts 168°
2026-05-06 20:58 51.16265 -0.18225 213 ft 5 kts 167°
2026-05-06 20:58 51.16209 -0.18205 219 ft 11 kts 167°
2026-05-06 20:59 51.16124 -0.18175 215 ft 13 kts 168°
2026-05-06 20:59 51.16041 -0.18147 213 ft 12 kts 167°
2026-05-06 20:59 51.15961 -0.18120 217 ft 14 kts 168°
2026-05-06 20:59 51.15856 -0.18084 212 ft 16 kts 167°
2026-05-06 21:00 51.15784 -0.18058 217 ft 7 kts 167°
2026-05-06 21:00 51.15733 -0.18040 215 ft 8 kts 168°
2026-05-06 21:00 51.15685 -0.18086 212 ft 12 kts 246°
2026-05-06 21:00 51.15663 -0.18224 217 ft 13 kts 257°
2026-05-06 21:01 51.15634 -0.18343 209 ft 9 kts 212°
2026-05-06 21:01 51.15555 -0.18334 209 ft 14 kts 168°
2026-05-06 21:01 51.15449 -0.18297 218 ft 17 kts 167°
2026-05-06 21:01 51.15337 -0.18258 216 ft 16 kts 168°
2026-05-06 21:02 51.15236 -0.18224 212 ft 12 kts 168°
2026-05-06 21:02 51.15194 -0.18280 218 ft 11 kts 252°
2026-05-06 21:02 51.15169 -0.18452 215 ft 20 kts 257°
2026-05-06 21:02 51.15140 -0.18663 210 ft 19 kts 258°
2026-05-06 21:03 51.15113 -0.18862 216 ft 18 kts 257°
2026-05-06 21:03 51.15086 -0.19054 218 ft 19 kts 258°
2026-05-06 21:03 51.15054 -0.19284 216 ft 23 kts 258°
2026-05-06 21:03 51.15020 -0.19532 215 ft 22 kts 257°
2026-05-06 21:04 51.14988 -0.19765 212 ft 21 kts 257°
2026-05-06 21:04 51.14957 -0.19985 214 ft 20 kts 257°
2026-05-06 21:04 51.14928 -0.20195 215 ft 19 kts 257°
2026-05-06 21:04 51.14901 -0.20391 216 ft 18 kts 257°
2026-05-06 21:05 51.14875 -0.20577 215 ft 17 kts 257°
2026-05-06 21:05 51.14852 -0.20751 213 ft 15 kts 258°
2026-05-06 21:05 51.14830 -0.20912 212 ft 14 kts 258°
2026-05-06 21:05 51.14810 -0.21057 217 ft 13 kts 257°
2026-05-06 21:06 51.14783 -0.21190 215 ft 12 kts 251°
2026-05-06 21:06 51.14764 -0.21317 211 ft 11 kts 257°
2026-05-06 21:06 51.14730 -0.21397 216 ft 6 kts 195°
2026-05-06 21:06 51.14719 -0.21399 215 ft 0 kts 181°
2026-05-06 21:07 51.14690 -0.21390 213 ft 5 kts 155°
2026-05-06 21:07 51.14660 -0.21354 217 ft 5 kts 142°
2026-05-06 21:08 51.14615 -0.21328 213 ft 10 kts 167°
2026-05-06 21:08 51.14534 -0.21254 217 ft 16 kts 125°
2026-05-06 21:08 51.14525 -0.21141 214 ft 0 kts 81°
2026-05-06 21:08 51.14525 -0.21137 208 ft 3 kts 81°
2026-05-06 21:09 51.14565 -0.20838 212 ft 57 kts 77°
2026-05-06 21:09 51.14692 -0.19915 213 ft 112 kts 78°
2026-05-06 21:09 51.14893 -0.18446 214 ft 158 kts 77°
2026-05-06 21:09 51.15155 -0.16566 429 ft 176 kts 81°
2026-05-06 21:10 51.15417 -0.14643 968 ft 189 kts 77°
2026-05-06 21:10 51.15711 -0.12551 1560 ft 199 kts 75°
2026-05-06 21:10 51.16035 -0.10242 1733 ft 228 kts 76°
2026-05-06 21:10 51.16394 -0.07603 2024 ft 250 kts 76°
2026-05-06 21:11 51.16758 -0.04906 2891 ft 251 kts 76°
2026-05-06 21:11 51.16864 -0.02096 3547 ft 258 kts 96°
2026-05-06 21:11 51.16746 0.00779 4254 ft 262 kts 88°
2026-05-06 21:11 51.16765 0.03714 4961 ft 268 kts 89°
2026-05-06 21:12 51.16733 0.06689 5737 ft 269 kts 91°
2026-05-06 21:12 51.16664 0.09692 6495 ft 271 kts 92°
2026-05-06 21:12 51.16600 0.12680 7153 ft 276 kts 91°
2026-05-06 21:12 51.16564 0.15748 7819 ft 279 kts 86°
2026-05-06 21:13 51.16655 0.18895 8468 ft 284 kts 90°
2026-05-06 21:13 51.16582 0.22055 9141 ft 287 kts 91°
2026-05-06 21:13 51.16553 0.25222 9806 ft 291 kts 89°
2026-05-06 21:13 51.16576 0.28422 10407 ft 295 kts 88°
2026-05-06 21:14 51.16595 0.31703 11041 ft 298 kts 89°
2026-05-06 21:14 51.16595 0.35012 11665 ft 300 kts 89°
2026-05-06 21:14 51.16593 0.38364 12293 ft 303 kts 89°
2026-05-06 21:14 51.16595 0.41734 12913 ft 306 kts 89°
2026-05-06 21:15 51.16597 0.45139 13532 ft 309 kts 89°
2026-05-06 21:15 51.16609 0.48572 14105 ft 311 kts 85°
2026-05-06 21:15 51.17180 0.51860 14623 ft 309 kts 60°
2026-05-06 21:15 51.18537 0.54486 15108 ft 308 kts 34°
2026-05-06 21:16 51.20448 0.55989 15573 ft 307 kts 11°
2026-05-06 21:16 51.22550 0.56768 16025 ft 312 kts 12°
2026-05-06 21:16 51.24669 0.57595 16569 ft 314 kts 11°
2026-05-06 21:16 51.26780 0.58380 17089 ft 317 kts 11°
2026-05-06 21:17 51.28945 0.59176 17605 ft 320 kts 11°
2026-05-06 21:17 51.31079 0.59973 18069 ft 325 kts 11°
2026-05-06 21:17 51.33341 0.60821 18094 ft 343 kts 11°
2026-05-06 21:17 51.35728 0.61715 18142 ft 360 kts 11°
2026-05-06 21:18 51.38222 0.62649 18208 ft 376 kts 11°
2026-05-06 21:18 51.40810 0.63624 18404 ft 386 kts 11°
2026-05-06 21:18 51.43423 0.64619 18884 ft 387 kts 11°
2026-05-06 21:18 51.46058 0.65621 19286 ft 390 kts 11°
2026-05-06 21:19 51.48726 0.66632 19704 ft 393 kts 11°
2026-05-06 21:19 51.51395 0.67645 20108 ft 396 kts 11°
2026-05-06 21:19 51.54084 0.68669 20503 ft 398 kts 11°
2026-05-06 21:19 51.56791 0.69701 20890 ft 401 kts 11°
2026-05-06 21:20 51.59525 0.70742 21306 ft 403 kts 11°
2026-05-06 21:20 51.61337 0.71431 21551 ft 405 kts 11°
2026-05-06 21:20 51.64956 0.72806 22042 ft 408 kts 11°
2026-05-06 21:20 51.67734 0.73865 22407 ft 411 kts 11°
2026-05-06 21:21 51.70488 0.74917 22769 ft 413 kts 11°
2026-05-06 21:21 51.73297 0.75991 23116 ft 415 kts 11°
2026-05-06 21:21 51.76115 0.77069 23463 ft 418 kts 11°
2026-05-06 21:21 51.78954 0.78161 23761 ft 420 kts 11°
2026-05-06 21:22 51.81775 0.79433 24027 ft 423 kts 22°
2026-05-06 21:22 51.84333 0.81789 24339 ft 427 kts 36°
2026-05-06 21:22 51.86467 0.85153 24581 ft 431 kts 52°
2026-05-06 21:22 51.87993 0.89314 24834 ft 435 kts 66°
2026-05-06 21:23 51.89039 0.93961 25058 ft 438 kts 72°
2026-05-06 21:23 51.89901 0.98649 25312 ft 440 kts 73°
2026-05-06 21:23 51.90838 1.03367 25565 ft 442 kts 68°
2026-05-06 21:23 51.92037 1.07954 25806 ft 443 kts 64°
2026-05-06 21:24 51.93346 1.12490 26045 ft 445 kts 65°
2026-05-06 21:24 51.94545 1.17117 26297 ft 447 kts 68°
2026-05-06 21:24 51.95671 1.21848 26533 ft 449 kts 68°
2026-05-06 21:24 51.96839 1.26544 26781 ft 450 kts 66°
2026-05-06 21:25 51.98061 1.31231 27021 ft 452 kts 66°
2026-05-06 21:25 51.99251 1.35873 27243 ft 454 kts 67°
2026-05-06 21:25 52.00434 1.40631 27484 ft 455 kts 67°
2026-05-06 21:25 52.01622 1.45407 27709 ft 457 kts 67°
2026-05-06 21:26 52.02421 1.48576 27855 ft 459 kts 67°
2026-05-06 21:26 52.03635 1.53385 28065 ft 461 kts 67°
2026-05-06 21:26 52.05252 1.59856 28335 ft 463 kts 67°
2026-05-06 21:26 52.06050 1.63072 28482 ft 464 kts 67°
2026-05-06 21:27 52.07264 1.67955 28717 ft 466 kts 67°
2026-05-06 21:27 52.08484 1.72859 28920 ft 468 kts 67°
2026-05-06 21:27 52.09702 1.77769 29139 ft 469 kts 67°
2026-05-06 21:27 52.10922 1.82704 29333 ft 471 kts 67°
2026-05-06 21:28 52.12143 1.87658 29553 ft 473 kts 67°
2026-05-06 21:28 52.13353 1.92574 29739 ft 474 kts 68°
2026-05-06 21:28 52.14595 1.97631 29953 ft 476 kts 68°
2026-05-06 21:28 52.15823 2.02641 30184 ft 476 kts 68°
2026-05-06 21:29 52.17033 2.07592 30337 ft 478 kts 68°
2026-05-06 21:29 52.18261 2.12626 30514 ft 479 kts 68°
2026-05-06 21:29 52.19490 2.17677 30689 ft 480 kts 68°
2026-05-06 21:29 52.20722 2.22749 30861 ft 481 kts 68°
2026-05-06 21:30 52.21952 2.27829 31029 ft 482 kts 68°
2026-05-06 21:30 52.23185 2.32931 31182 ft 484 kts 68°
2026-05-06 21:30 52.24416 2.38039 31346 ft 485 kts 68°
2026-05-06 21:30 52.25652 2.43177 31505 ft 486 kts 68°
2026-05-06 21:31 52.26886 2.48317 31595 ft 489 kts 68°
2026-05-06 21:31 52.28127 2.53505 31804 ft 489 kts 68°
2026-05-06 21:31 52.29369 2.58705 31941 ft 491 kts 68°
2026-05-06 21:31 52.30603 2.63907 32100 ft 492 kts 70°
2026-05-06 21:32 52.31601 2.69253 32197 ft 493 kts 73°
2026-05-06 21:32 52.33456 2.79908 32500 ft 495 kts 73°
2026-05-06 21:32 52.34415 2.85329 32643 ft 497 kts 73°
2026-05-06 21:33 52.35374 2.90765 32798 ft 498 kts 73°
2026-05-06 21:33 52.36323 2.96214 32943 ft 499 kts 74°
2026-05-06 21:33 52.37269 3.01678 33088 ft 500 kts 74°
2026-05-06 21:33 52.38219 3.07148 33309 ft 499 kts 74°
2026-05-06 21:34 52.40017 3.18160 33560 ft 501 kts 81°
2026-05-06 21:34 52.41024 3.29467 33870 ft 501 kts 82°
2026-05-06 21:35 52.41518 3.35129 34002 ft 502 kts 81°
2026-05-06 21:35 52.42040 3.40771 34211 ft 500 kts 81°
2026-05-06 21:35 52.43046 3.52071 34517 ft 500 kts 82°
2026-05-06 21:36 52.44015 3.63157 34756 ft 501 kts 82°
2026-05-06 21:36 52.45002 3.74476 35026 ft 501 kts 82°
2026-05-06 21:37 52.45970 3.85807 34988 ft 501 kts 82°
2026-05-06 21:37 52.46931 3.97111 34990 ft 501 kts 82°
2026-05-06 21:38 52.47877 4.08410 34987 ft 498 kts 82°
2026-05-06 21:38 52.48809 4.19658 34981 ft 497 kts 82°
2026-05-06 21:39 52.49729 4.30906 34981 ft 498 kts 82°
2026-05-06 21:39 52.50640 4.42166 34979 ft 498 kts 82°
2026-05-06 21:40 52.51541 4.53442 34975 ft 498 kts 83°
2026-05-06 21:40 52.52425 4.64654 34974 ft 498 kts 83°
2026-05-06 21:41 52.53306 4.75953 34980 ft 498 kts 83°
2026-05-06 21:41 52.53916 4.81535 35004 ft 497 kts 72°
2026-05-06 21:41 52.55174 4.86818 35015 ft 497 kts 60°
2026-05-06 21:42 52.59164 4.96091 35001 ft 497 kts 51°
2026-05-06 21:42 52.63458 5.04997 34990 ft 494 kts 51°
2026-05-06 21:43 52.67680 5.13873 34991 ft 495 kts 51°
2026-05-06 21:43 52.71914 5.22761 34979 ft 498 kts 51°
2026-05-06 21:44 52.75825 5.32227 34989 ft 499 kts 59°
2026-05-06 21:44 52.79327 5.42139 34988 ft 499 kts 59°